Tracking 19795 objects as of 20-Jul-2019
HD Live streaming from Space Station
objects crossing your sky now

GALAXY 9

Track GALAXY 9 now!
GALAXY 9 is classified as:


NORAD ID: 23877
Int'l Code: 1996-033A
Perigee: 35,970.4 km
Apogee: 36,027.5 km
Inclination: 8.1 °
Period: 1,446.6 minutes
Semi major axis: 42369 km
RCS: 8.797 m2 (large)
Launch date: May 24, 1996
Source: United States (US)
Launch site: AIR FORCE EASTERN TEST RANGE (AFETR)

Voice and vision communication; 24 C-band; North America, Caribbean.
aabbcc
Your satellite tracking list
Your tracking list is empty




NASA's NSSDC Master Catalog

Two Line Element Set (TLE):
1 23877U 96033A   19200.42352965 -.00000344  00000-0  00000+0 0  9997
2 23877   8.0579  48.3919 0006738  89.6961  90.7361  0.99544384 84560
Source of the keplerian elements: AFSPC